Regional Weather Roundup
Issued by NWS

Home | Current Version | Previous Version | Graphics & Text | Print | Product List | Glossary On
Versions: 1 2 3 4 5 6 7 8 9 10 11 12 13 14 15 16 17 18 19 20 21 22 23 24 25 26 27 28
000
ASUS45 KCYS 171410
RWRWY

WYOMING REGIONAL WEATHER ROUNDUP
NATIONAL WEATHER SERVICE CHEYENNE WY
800 AM MDT THU APR 17 2014

NOTE:  "FAIR" INDICATES FEW OR NO CLOUDS BELOW 12,000 FEET
WITH NO SIGNIFICANT WEATHER AND/OR OBSTRUCTIONS TO VISIBILITY.

WYZ001-171500-
YELLOWSTONE NATIONAL PARK

CITY           SKY/WX    TMP DP  RH WIND       PRES   REMARKS
LK YELLOWSTONE   N/A     19  12  74 CALM      30.06R
W YELLOWSTONE  NOT AVBL

$$
WYZ002>013-054>058-071-098>099-171500-
NORTHERN WYOMING

CITY           SKY/WX    TMP DP  RH WIND       PRES   REMARKS
JACKSON        SUNNY     19  18  93 N8        30.06R WCI   9
CODY           MOSUNNY   34  27  75 S3        29.99S
GREYBULL       SUNNY     35  31  85 CALM      30.02R
WORLAND        MOSUNNY   37  29  72 SE7       30.01R WCI  32
SHERIDAN       CLOUDY    33  30  88 S3        30.02S
BUFFALO        PTSUNNY   32  28  85 CALM      30.02S
GILLETTE       CLOUDY    35  32  88 S20       30.03F WCI  24
HULETT         CLOUDY    36  32  87 SW13      30.08  WCI  27
NEWCASTLE      CLOUDY    34  30  86 SE9       30.12  WCI  26

$$
WYZ014>020-022>026-101>103-171500-
CENTRAL WYOMING

CITY           SKY/WX    TMP DP  RH WIND       PRES   REMARKS
BIG PINEY      MOSUNNY   22  16  78 CALM      30.10R
PINEDALE       MOSUNNY   23  19  86 CALM      30.11R
DUBOIS         FAIR      28  12  50 N12       30.02S WCI  18
LANDER         MOSUNNY   31  28  89 CALM      30.05R
RIVERTON       MOSUNNY   32  29  88 NW7       30.05R WCI  26
CASPER         MOSUNNY   30  29  96 CALM      30.05S FOG
DOUGLAS        CLOUDY    34  32  92 SE12      30.08R WCI  25

$$
WYZ021-027>030-104>119-171500-
SOUTHERN WYOMING

CITY           SKY/WX    TMP DP  RH WIND       PRES   REMARKS
EVANSTON       SUNNY     32  13  45 S5        30.09R WCI  27
FORT BRIDGER   FAIR      33  12  41 W5        30.11R WCI  28
ROCK SPRINGS   PTSUNNY   29  12  49 CALM      30.09R
DIXON          FAIR      32  21  64 SE6       30.13S WCI  27
RAWLINS        SUNNY     28  21  75 CALM      30.09R
SARATOGA       FAIR      30  21  69 E5        30.10S WCI  25
LARAMIE        SUNNY     30  23  75 CALM      30.08R
CHEYENNE       FOG       30  30 100 SW7       30.08S VSB 1/2 WCI  23
TORRINGTON     CLOUDY    34  31  88 SE12      30.12S WCI  25
PINE BLUFFS    CLOUDY    32  32 100 S10       30.12S FOG     WCI  24

$$



USA.gov is the U.S. government's official web portal to all federal, state and local government web resources and services.